Hourly Data Report for October 27, 2016

All times are specified in Local Standard Time (LST). Add 1 hour to adjust for Daylight Saving Time where and when it is observed.

QIKIQTARJUAQ A
NUNAVUT

67°32'48.000" N
64°01'54.000" W
5.50 m
2400577
YVM

Download Data

Hourly Data (October 2016)
Hourly Data Report for October 27, 2016
Temp Definition
°C
Dew Point Temp Definition
°C
Rel Hum Definition
%
Wind Dir Definition
10's deg

Wind Spd Definition
km/h
Visibility Definition
km
Stn Press Definition
kPa
Hmdx Definition


Wind Chill Definition


Weather Definition


TIME
00:00 Legend Double Dagger -6.5 -11.9 66 18 8 16.1 101.15   -10 LegendNANA
01:00 Legend Double Dagger -7.0 -11.4 71 20 9 16.1 101.14   -11 LegendNANA
02:00 Legend Double Dagger -6.0 -11.8 64 LegendMM 4 16.1 101.14   -8 LegendNANA
03:00 Legend Double Dagger -6.5 -12.1 65 16 8 16.1 101.13   -10 LegendNANA
04:00 Legend Double Dagger -6.0 -11.2 67 20 15 16.1 101.10   -12 LegendNANA
05:00 Legend Double Dagger -6.2 -12.4 62 14 5 16.1 101.08   -9 LegendNANA
06:00 Legend Double Dagger -6.5 -11.8 66 16 8 16.1 101.07   -10 LegendNANA
07:00 Legend Double Dagger -6.6 -11.6 68 16 5 16.1 101.05   -9 LegendNANA
08:00 Legend Double Dagger -6.7 -11.7 68 14 9 16.1 101.03   -11 LegendNANA
09:00 Legend Double Dagger -6.8 -12.1 66 16 9 16.1 100.99   -11 LegendNANA
10:00 Legend Double Dagger -5.6 -11.0 66 18 11 16.1 100.95   -10 LegendNANA
11:00 Legend Double Dagger -4.8 -9.7 69 22 11 16.1 100.91   -9 LegendNANA
12:00 Legend Double Dagger -4.2 -9.1 69 21 13 16.1 100.85   -9 LegendNANA
13:00 Legend Double Dagger -3.0 -10.6 56 17 22 16.1 100.79   -9 LegendNANA
14:00 Legend Double Dagger -2.9 -10.2 57   0 16.1 100.80     LegendNANA
15:00 Legend Double Dagger -2.9 -9.8 59 21 18 16.1 100.77   -9 LegendNANA
16:00 Legend Double Dagger -3.7 -9.6 64 19 22 16.1 100.76   -10 LegendNANA
17:00 Legend Double Dagger -4.0 -10.8 60 16 8 16.1 100.77   -7 LegendNANA
18:00 Legend Double Dagger -2.8 -10.0 58 21 17 16.1 100.77   -8 LegendNANA
19:00 Legend Double Dagger -3.9 -8.7 69 20 22 16.1 100.78   -10 LegendNANA
20:00 Legend Double Dagger -3.6 -10.7 58 20 21 16.1 100.78   -10 LegendNANA
21:00 Legend Double Dagger -2.3 -11.6 49 21 9 16.1 100.77   -6 LegendNANA
22:00 Legend Double Dagger -3.5 -9.3 65 11 11 16.1 100.83   -8 LegendNANA
23:00 Legend Double Dagger -2.1 -6.3 73 1 24 16.1 100.86   -8 LegendNANA

Notes on Data Quality.

Legend

  • E = Estimated
  • M = Missing
  • NA = Not Available
  • ‡ = Partner data that is not subject to review by the National Climate Archives
Date modified: